Location: Casa Rossa
(45.2389°N, 12.2056°E)
Time: 23:14:51
(UTC+00:00)

Cosmos 1763 Rocket - Pass Details

Date: 14 July 2020
Orbit: 732 x 781 km, 74.0° (Epoch: 14 August)

Event Time Altitude Azimuth Distance (km) Brightness Sun altitude
Rises 02:23:05 0° 337° (NNW) 3,241 7.1 -10.9°
Reaches altitude 10° 02:25:28 10° 335° (NNW) 2,318 6.3 -10.6°
Maximum altitude 02:30:43 74° 252° (WSW) 809 3.5 -10.0°
Drops below altitude 10° 02:35:59 10° 168° (SSE) 2,323 5.7 -9.3°
Sets 02:38:22 0° 166° (SSE) 3,249 6.5 -9.0°
